Location: Unspecified
(0.0000°N, 0.0000°E)
Time: 11:21:29
(UTC+00:00)

Vanguard 2 Rocket - Pass Details

Date: 27 November 2019
Orbit: 554 x 3326 km, 32.9° (Epoch: 08 December)

Event Time Altitude Azimuth Distance (km) Brightness Sun altitude
Rises 19:44:12 0° 253° (WSW) 5,816 12.3 -27.0°
Reaches altitude 10° 19:49:17 10° 262° (W) 4,294 11.2 -28.2°
Maximum altitude 19:58:06 30° 317° (NW) 2,155 8.9 -30.2°
Enters shadow 20:00:17 26° 345° (NNW) 2,105 8.6 -30.7°
Drops below altitude 10° 20:03:44 10° 18° (NNE) 2,660 - -31.4°
Sets 20:06:08 0° 30° (NNE) 3,345 - -32.0°
